Tacoma, WA

8:08 PM PDT on May 25, 2017 (GMT -0700)
McChord Air Force Base

Weather History for KTCM - October, 2011

Change the Weather History Date:

Saturday, October 29, 2011

  Actual Average Record
Temperature  
Mean Temperature 47 °F -  
Max Temperature 57 °F 53 °F 66 °F (1962)
Min Temperature 37 °F 35 °F 29 °F (1985)
Degree Days  
Heating Degree Days 18    
Moisture  
Dew Point 41 °F    
Average Humidity 96    
Maximum Humidity 100    
Minimum Humidity 67    
Precipitation  
Precipitation 0.00 in - - ()
Sea Level Pressure  
Sea Level Pressure 30.23 in    
Wind  
Wind Speed 3 mph (SSE)    
Max Wind Speed 9 mph    
Max Gust Speed -    
Visibility 3 miles    
Events Fog    
Averages and records for this station are not official NWS values.
T = Trace of Precipitation, MM = Missing Value Source: NWS Daily Summary

Daily Weather History Graph

Daily Weather History Graph

Search for Another Location

Airport or City:

Trip Planner

Search our weather history database for the weather conditions in past years. The results will help you decide how hot, cold, wet, or windy it might be!

Date:

Astronomy

Oct. 29, 2011 Rise Set
Actual Time 7:48 AM PDT 5:58 PM PDT
Civil Twilight 7:16 AM PDT 6:29 PM PDT
Nautical Twilight 6:40 AM PDT 7:05 PM PDT
Astronomical Twilight 6:05 AM PDT 7:41 PM PDT
Moon 11:29 AM PDT (10/29) 8:14 PM PDT (10/29)
Length of Visible Light 11h 13m
Length of Day
10h 10m
Waxing Crescent, 12% of the Moon is Illuminated
Oct 29
Waxing Crescent
Nov 2
First Quarter
Nov 10
Full
Nov 18
Last Quarter
Nov 24
New

Hourly Weather History & Observations

Time (PDT) Temp. Windchill Dew Point Humidity Pressure Visibility Wind Dir Wind Speed Gust Speed Precip Events Conditions
12:58 AM 47.7 °F - 46.2 °F 95% 30.16 in 10.0 mi South 6.9 mph - N/A   Overcast
1:58 AM 48.0 °F - 46.8 °F 95% 30.17 in 10.0 mi South 9.2 mph - N/A   Overcast
2:58 AM 46.6 °F - 46.0 °F 98% 30.18 in 10.0 mi South 6.9 mph - N/A   Overcast
3:58 AM 46.9 °F - 45.7 °F 95% 30.19 in 10.0 mi South 5.8 mph - N/A   Mostly Cloudy
4:58 AM 42.6 °F - 42.4 °F 99% 30.21 in 10.0 mi Calm Calm - N/A   Partly Cloudy
5:58 AM 40.3 °F 36.3 °F 39.9 °F 99% 30.23 in 7.0 mi SSE 5.8 mph - N/A   Partly Cloudy
6:58 AM 42.4 °F 39.6 °F 42.3 °F 99% 30.25 in 10.0 mi South 4.6 mph - N/A   Clear
7:10 AM 41.0 °F 39.0 °F 41.0 °F 100% 30.23 in 2.5 mi South 3.5 mph - N/A   Clear
7:13 AM 41.0 °F 39.0 °F 41.0 °F 100% 30.23 in 2.0 mi SSE 3.5 mph - N/A   Clear
7:14 AM 41.0 °F 39.0 °F 41.0 °F 100% 30.23 in 2.5 mi SSE 3.5 mph - N/A   Clear
7:17 AM 39.2 °F 37.0 °F 39.2 °F 100% 30.23 in 1.8 mi SSE 3.5 mph - N/A   Clear
7:18 AM 39.2 °F 37.0 °F 39.2 °F 100% 30.23 in 1.5 mi SE 3.5 mph - N/A   Clear
7:20 AM 39.2 °F - 39.2 °F 100% 30.23 in 1.2 mi Calm Calm - N/A   Clear
7:21 AM 39.2 °F - 39.2 °F 100% 30.23 in 1.0 mi Calm Calm - N/A   Clear
7:22 AM 39.2 °F - 39.2 °F 100% 30.23 in 1.0 mi Calm Calm - N/A   Clear
7:24 AM 39.2 °F - 39.2 °F 100% 30.23 in 1.0 mi Calm Calm - N/A   Clear
7:26 AM 41.0 °F - 39.2 °F 93% 30.23 in 0.8 mi Calm Calm - N/A   Clear
7:32 AM 39.2 °F - 39.2 °F 100% 30.23 in 0.5 mi Calm Calm - N/A Fog Fog
7:35 AM 39.2 °F - 39.2 °F 100% 30.23 in 0.5 mi Calm Calm - N/A Fog Fog
7:36 AM 39.2 °F - 37.4 °F 93% 30.23 in 0.5 mi Calm Calm - N/A Fog Fog
7:37 AM 39.2 °F - 37.4 °F 93% 30.23 in 0.5 mi Calm Calm - N/A Fog Fog
7:42 AM 37.4 °F 34.9 °F 37.4 °F 100% 30.23 in 0.8 mi East 3.5 mph - N/A   Clear
7:48 AM 37.4 °F 34.9 °F 37.4 °F 100% 30.24 in 0.8 mi East 3.5 mph - N/A   Clear
7:53 AM 37.4 °F 33.8 °F 37.4 °F 100% 30.24 in 0.8 mi ESE 4.6 mph - N/A   Clear
7:54 AM 37.4 °F 33.8 °F 37.4 °F 100% 30.24 in 1.0 mi ESE 4.6 mph - N/A   Clear
7:55 AM 38.3 °F 34.8 °F 37.4 °F 97% 30.26 in 1.0 mi ESE 4.6 mph - N/A   Clear
7:57 AM 39.2 °F 37.0 °F 39.2 °F 100% 30.24 in 1.2 mi ESE 3.5 mph - N/A   Clear
8:00 AM 39.2 °F 37.0 °F 39.2 °F 100% 30.25 in 1.8 mi ESE 3.5 mph - N/A   Clear
8:01 AM 39.2 °F 37.0 °F 39.2 °F 100% 30.25 in 2.5 mi ESE 3.5 mph - N/A   Clear
8:02 AM 39.2 °F - 39.2 °F 100% 30.25 in 3.0 mi Calm Calm - N/A   Clear
8:14 AM 39.2 °F - 39.2 °F 100% 30.25 in 2.0 mi Calm Calm - N/A   Scattered Clouds
8:15 AM 39.2 °F - 39.2 °F 100% 30.25 in 1.5 mi Calm Calm - N/A   Mostly Cloudy
8:17 AM 39.2 °F - 39.2 °F 100% 30.25 in 1.0 mi Calm Calm - N/A   Mostly Cloudy
8:19 AM 39.2 °F - 37.4 °F 93% 30.25 in 0.8 mi Calm Calm - N/A   Mostly Cloudy
8:28 AM 37.4 °F - 37.4 °F 100% 30.25 in 1.0 mi Calm Calm - N/A   Mostly Cloudy
8:29 AM 37.4 °F - 37.4 °F 100% 30.25 in 0.8 mi Calm Calm - N/A   Mostly Cloudy
8:35 AM 39.2 °F - 39.2 °F 100% 30.26 in 1.0 mi Calm Calm - N/A   Scattered Clouds
8:37 AM 39.2 °F - 39.2 °F 100% 30.26 in 1.2 mi Calm Calm - N/A   Scattered Clouds
8:39 AM 39.2 °F - 39.2 °F 100% 30.26 in 1.8 mi Calm Calm - N/A   Scattered Clouds
8:40 AM 39.2 °F - 39.2 °F 100% 30.26 in 2.5 mi Calm Calm - N/A   Scattered Clouds
8:44 AM 39.2 °F - 39.2 °F 100% 30.26 in 2.0 mi Calm Calm - N/A   Partly Cloudy
8:50 AM 41.0 °F 39.0 °F 41.0 °F 100% 30.26 in 2.5 mi NE 3.5 mph - N/A   Partly Cloudy
8:51 AM 41.0 °F - 41.0 °F 100% 30.26 in 1.8 mi Calm Calm - N/A   Partly Cloudy
8:53 AM 41.0 °F - 41.0 °F 100% 30.26 in 1.5 mi Calm Calm - N/A   Clear
8:58 AM 41.5 °F - 41.2 °F 99% 30.28 in 1.5 mi Calm Calm - N/A   Clear
8:59 AM 42.8 °F - 41.0 °F 93% 30.27 in 1.8 mi Calm Calm - N/A   Clear
9:01 AM 42.8 °F - 42.8 °F 100% 30.27 in 2.5 mi Calm Calm - N/A   Clear
9:02 AM 42.8 °F - 42.8 °F 100% 30.27 in 5.0 mi Calm Calm - N/A   Clear
9:58 AM 47.7 °F - 46.0 °F 94% 30.29 in 9.0 mi Variable 3.5 mph - N/A   Clear
10:58 AM 52.7 °F - 46.9 °F 81% 30.31 in 10.0 mi SSW 4.6 mph - N/A   Clear
11:58 AM 53.6 °F - 47.3 °F 79% 30.31 in 10.0 mi SW 6.9 mph - N/A   Scattered Clouds
12:58 PM 55.8 °F - 49.3 °F 79% 30.32 in 10.0 mi NW 8.1 mph - N/A   Mostly Cloudy
12:59 PM 55.4 °F - 50.0 °F 82% 30.31 in 10.0 mi NNW 8.1 mph - N/A   Overcast
1:01 PM 55.4 °F - 50.0 °F 82% 30.31 in 10.0 mi NW 6.9 mph - N/A   Overcast
1:58 PM 55.9 °F - 48.4 °F 76% 30.32 in 10.0 mi Variable 5.8 mph - N/A   Clear
2:55 PM 56.8 °F - 47.8 °F 72% 30.31 in 10.0 mi Calm Calm - N/A   Clear
3:58 PM 57.7 °F - 46.9 °F 67% 30.30 in 10.0 mi West 4.6 mph - N/A   Clear
4:58 PM 56.8 °F - 46.4 °F 68% 30.29 in 10.0 mi NW 5.8 mph - N/A   Clear
5:58 PM 53.2 °F - 46.4 °F 78% 30.27 in 10.0 mi NE 5.8 mph - N/A   Mostly Cloudy
6:58 PM 49.5 °F - 44.4 °F 83% 30.26 in 10.0 mi Calm Calm - N/A   Clear
7:58 PM 45.0 °F 43.5 °F 43.5 °F 95% 30.24 in 10.0 mi South 3.5 mph - N/A   Clear
8:58 PM 41.2 °F - 40.1 °F 96% 30.23 in 6.0 mi Calm Calm - N/A   Clear
9:47 PM 42.8 °F - 41.0 °F 93% 30.21 in 2.5 mi Calm Calm - N/A   Clear
9:51 PM 42.8 °F - 41.0 °F 93% 30.21 in 1.8 mi Calm Calm - N/A   Clear
9:52 PM 42.8 °F - 41.0 °F 93% 30.21 in 1.2 mi Calm Calm - N/A   Clear
9:53 PM 41.0 °F - 41.0 °F 100% 30.21 in 1.0 mi Calm Calm - N/A   Clear
9:54 PM 41.0 °F - 41.0 °F 100% 30.21 in 0.8 mi Calm Calm - N/A   Clear
9:58 PM 41.5 °F - 41.4 °F 99% 30.23 in 0.5 mi Calm Calm - N/A Fog Fog
10:00 PM 41.0 °F 39.0 °F 41.0 °F 100% 30.22 in 0.5 mi SSE 3.5 mph - N/A Fog Fog
10:04 PM 41.0 °F 39.0 °F 39.2 °F 93% 30.22 in 0.8 mi SSE 3.5 mph - N/A   Clear
10:08 PM 39.2 °F 37.0 °F 39.2 °F 100% 30.21 in 1.0 mi SSE 3.5 mph - N/A   Clear
10:09 PM 39.2 °F 37.0 °F 39.2 °F 100% 30.21 in 1.0 mi SSE 3.5 mph - N/A   Clear
10:11 PM 41.0 °F 39.0 °F 39.2 °F 93% 30.21 in 1.2 mi SSE 3.5 mph - N/A   Clear
10:23 PM 41.0 °F 39.0 °F 41.0 °F 100% 30.21 in 1.8 mi SSE 3.5 mph - N/A   Clear
10:25 PM 41.0 °F 39.0 °F 41.0 °F 100% 30.21 in 2.5 mi SSE 3.5 mph - N/A   Clear
10:26 PM 41.0 °F - 41.0 °F 100% 30.21 in 3.0 mi Calm Calm - N/A   Clear
10:58 PM 41.2 °F - 41.0 °F 99% 30.22 in 4.0 mi Calm Calm - N/A   Clear
10:59 PM 41.0 °F - 39.2 °F 93% 30.21 in 2.5 mi Calm Calm - N/A   Clear
11:00 PM 39.2 °F - 39.2 °F 100% 30.21 in 2.0 mi Calm Calm - N/A   Clear
11:01 PM 39.2 °F - 39.2 °F 100% 30.21 in 1.5 mi Calm Calm - N/A   Clear
11:03 PM 39.2 °F - 39.2 °F 100% 30.21 in 1.0 mi Calm Calm - N/A   Clear
11:05 PM 39.2 °F - 39.2 °F 100% 30.21 in 0.8 mi Calm Calm - N/A   Clear
11:08 PM 39.2 °F - 39.2 °F 100% 30.21 in 0.5 mi Calm Calm - N/A Fog Fog
11:09 PM 39.2 °F - 39.2 °F 100% 30.21 in 0.5 mi Calm Calm - N/A Fog Fog
11:11 PM 39.2 °F - 39.2 °F 100% 30.21 in 0.5 mi Calm Calm - N/A Fog Fog
11:17 PM 37.4 °F - 37.4 °F 100% 30.21 in 0.8 mi Calm Calm - N/A   Clear
11:19 PM 37.4 °F 34.9 °F 37.4 °F 100% 30.21 in 0.5 mi South 3.5 mph - N/A Fog Fog
11:21 PM 37.4 °F 34.9 °F 37.4 °F 100% 30.21 in 2.0 mi South 3.5 mph - N/A Fog Fog
11:25 PM 37.4 °F 34.9 °F 37.4 °F 100% 30.20 in 0.5 mi SSE 3.5 mph - N/A Fog Fog
11:29 PM 37.4 °F 34.9 °F 37.4 °F 100% 30.20 in 0.8 mi SSE 3.5 mph - N/A   Clear
11:36 PM 37.4 °F - 37.4 °F 100% 30.20 in 0.5 mi Calm Calm - N/A Fog Fog
11:37 PM 37.4 °F - 37.4 °F 100% 30.20 in 0.5 mi Calm Calm - N/A Fog Fog
11:38 PM 37.4 °F - 37.4 °F 100% 30.20 in 0.5 mi Calm Calm - N/A Fog Fog
11:39 PM 37.4 °F - 37.4 °F 100% 30.20 in 0.8 mi Calm Calm - N/A Fog Fog
11:42 PM 39.2 °F - 39.2 °F 100% 30.20 in 1.0 mi Calm Calm - N/A   Clear
11:44 PM 39.2 °F - 39.2 °F 100% 30.20 in 1.2 mi Calm Calm - N/A   Clear
11:46 PM 39.2 °F - 39.2 °F 100% 30.19 in 2.0 mi Calm Calm - N/A   Clear
11:48 PM 39.2 °F - 39.2 °F 100% 30.19 in 2.5 mi Calm Calm - N/A   Clear
11:49 PM 41.0 °F - 41.0 °F 100% 30.19 in 2.0 mi Calm Calm - N/A   Clear
11:50 PM 41.0 °F - 41.0 °F 100% 30.19 in 1.5 mi Calm Calm - N/A   Clear
11:52 PM 41.0 °F - 41.0 °F 100% 30.19 in 1.0 mi Calm Calm - N/A   Clear
11:53 PM 41.0 °F - 41.0 °F 100% 30.19 in 0.8 mi Calm Calm - N/A   Clear
11:54 PM 41.0 °F - 41.0 °F 100% 30.19 in 0.5 mi Calm Calm - N/A Fog Fog
11:55 PM 41.0 °F - 40.6 °F 99% 30.19 in 0.5 mi Calm Calm - N/A Fog Fog
11:58 PM 39.2 °F - 39.2 °F 100% 30.19 in 0.5 mi Calm Calm - N/A Fog Fog